Precipitable_Water
1.46 1.47 1.33 1.33 1.37 1.39 1.34 1.33 1.33 1.33 1.37 1.42 1.45 1.41 1.29 1.45 1.54 1.72 1.76 1.81 1.85 1.76 1.71 1.74 1.69 1.59 1.43 1.42 1.44 1.36 1.36 1.35 1.33 1.23 1.15 1.22 1.26 1.25 1.33 1.39 1.38 1.36 1.37
1.41 1.43 1.36 1.29 1.31 1.32 1.36 1.37 1.43 1.47 1.49 1.56 1.55 1.53 1.45 1.53 1.61 1.79 1.85 1.84 1.84 1.87 1.61 1.65 1.67 1.61 1.40 1.37 1.35 1.32 1.27 1.25 1.28 1.13 1.11 0.91 0.97 1.10 1.21 1.25 1.28 1.25 1.32
1.32 1.39 1.32 1.22 1.27 1.30 1.34 1.32 1.37 1.42 1.42 1.41 1.41 1.46 1.46 1.52 1.55 1.70 1.79 1.82 1.80 1.81 1.73 1.74 1.74 1.61 1.51 1.37 1.28 1.31 1.31 1.16 1.25 1.33 1.18 0.99 0.89 1.03 1.14 1.13 1.14 1.14 1.20
1.32 1.37 1.30 1.26 1.23 1.26 1.33 1.39 1.40 1.45 1.43 1.39 1.28 1.26 1.17 1.20 1.47 1.59 1.75 1.74 1.75 1.77 1.80 1.75 1.69 1.63 1.54 1.39 1.35 1.36 1.36 1.26 1.15 1.26 1.35 1.33 1.23 0.99 0.91 1.05 1.06 1.11 1.13
1.28 1.30 1.28 1.26 1.28 1.31 1.25 1.34 1.40 1.41 1.46 1.38 1.29 1.21 1.26 1.32 1.50 1.58 1.62 1.60 1.67 1.79 1.86 1.75 1.65 1.58 1.59 1.47 1.44 1.40 1.34 1.34 1.21 1.18 1.27 1.24 1.22 1.23 1.07 0.91 0.94 1.05 1.17
1.37 1.30 1.36 1.38 1.31 1.39 1.37 1.33 1.35 1.37 1.45 1.38 1.33 1.21 1.19 1.36 1.38 1.48 1.50 1.54 1.56 1.61 1.67 1.76 1.68 1.62 1.60 1.53 1.41 1.43 1.40 1.39 1.38 1.30 1.33 1.21 1.13 1.13 1.13 1.02 1.00 1.06 1.18
1.35 1.30 1.19 1.25 1.29 1.31 1.37 1.37 1.33 1.33 1.42 1.41 1.31 1.21 1.18 1.29 1.38 1.46 1.49 1.52 1.45 1.45 1.50 1.59 1.71 1.68 1.67 1.64 1.60 1.42 1.37 1.40 1.39 1.34 1.34 1.31 1.32 1.33 1.27 1.16 1.11 1.12 1.23
1.49 1.43 1.31 1.25 1.28 1.29 1.32 1.36 1.29 1.31 1.36 1.40 1.31 1.26 1.22 1.26 1.32 1.44 1.48 1.52 1.45 1.46 1.59 1.61 1.57 1.67 1.68 1.65 1.61 1.54 1.49 1.47 1.43 1.41 1.40 1.35 1.39 1.41 1.38 1.26 1.16 1.06 1.11
1.47 1.50 1.39 1.32 1.31 1.34 1.33 1.34 1.29 1.29 1.37 1.38 1.34 1.29 1.23 1.22 1.26 1.40 1.48 1.56 1.52 1.50 1.69 1.72 1.63 1.59 1.69 1.65 1.55 1.54 1.50 1.49 1.46 1.40 1.41 1.38 1.43 1.44 1.39 1.42 1.37 1.17 0.97
1.43 1.49 1.50 1.34 1.37 1.40 1.40 1.40 1.37 1.29 1.34 1.39 1.34 1.28 1.22 1.21 1.21 1.36 1.42 1.45 1.50 1.60 1.62 1.64 1.64 1.61 1.65 1.65 1.60 1.47 1.51 1.45 1.40 1.44 1.40 1.39 1.41 1.43 1.41 1.39 1.42 1.40 1.22
1.21 1.41 1.53 1.55 1.47 1.46 1.46 1.44 1.43 1.40 1.41 1.45 1.45 1.36 1.29 1.22 1.22 1.19 1.34 1.43 1.44 1.54 1.58 1.56 1.57 1.63 1.64 1.66 1.65 1.57 1.46 1.37 1.36 1.32 1.30 1.33 1.39 1.39 1.40 1.42 1.44 1.35 1.31
1.08 1.31 1.50 1.61 1.53 1.39 1.44 1.47 1.49 1.46 1.46 1.53 1.49 1.44 1.36 1.29 1.20 1.14 1.18 1.32 1.38 1.49 1.49 1.51 1.46 1.47 1.54 1.65 1.59 1.53 1.52 1.37 1.27 1.31 1.24 1.21 1.32 1.32 1.39 1.37 1.34 1.37 1.37
1.08 1.22 1.43 1.57 1.60 1.54 1.52 1.54 1.55 1.52 1.55 1.54 1.55 1.54 1.45 1.34 1.25 1.20 1.13 1.16 1.22 1.31 1.40 1.44 1.43 1.45 1.48 1.53 1.55 1.53 1.48 1.42 1.31 1.28 1.30 1.30 1.29 1.21 1.25 1.26 1.28 1.34 1.38
1.10 1.17 1.27 1.40 1.64 1.71 1.64 1.70 1.66 1.64 1.67 1.60 1.55 1.51 1.51 1.46 1.37 1.30 1.25 1.16 1.10 1.16 1.22 1.29 1.36 1.42 1.45 1.47 1.48 1.46 1.46 1.41 1.34 1.28 1.25 1.28 1.32 1.31 1.32 1.30 1.29 1.31 1.29
1.05 1.14 1.22 1.31 1.49 1.66 1.80 1.82 1.79 1.76 1.72 1.69 1.62 1.49 1.49 1.54 1.53 1.44 1.36 1.32 1.26 1.09 1.11 1.18 1.23 1.31 1.34 1.34 1.34 1.36 1.35 1.38 1.35 1.34 1.32 1.28 1.27 1.31 1.38 1.37 1.32 1.36 1.32
0.98 1.08 1.21 1.27 1.34 1.53 1.70 1.81 1.83 1.81 1.82 1.73 1.68 1.69 1.63 1.51 1.52 1.52 1.47 1.41 1.35 1.30 1.15 1.00 1.07 1.11 1.22 1.27 1.29 1.31 1.27 1.28 1.28 1.23 1.29 1.32 1.32 1.30 1.28 1.24 1.27 1.33 1.23
0.88 0.97 1.09 1.22 1.31 1.41 1.60 1.74 1.80 1.85 1.76 1.76 1.77 1.77 1.72 1.65 1.51 1.53 1.51 1.47 1.41 1.41 1.36 1.26 1.07 0.96 1.03 1.11 1.16 1.20 1.23 1.20 1.19 1.18 1.19 1.18 1.23 1.25 1.25 1.25 1.25 1.23 1.24
0.75 0.85 0.99 1.12 1.23 1.35 1.49 1.70 1.90 1.87 1.78 1.76 1.75 1.78 1.76 1.70 1.69 1.59 1.53 1.52 1.52 1.45 1.42 1.41 1.38 1.30 1.17 1.06 1.02 1.05 1.10 1.12 1.10 1.10 1.10 1.11 1.13 1.18 1.21 1.18 1.14 1.17 1.20
0.65 0.76 0.87 1.04 1.16 1.23 1.35 1.49 1.80 1.79 1.82 1.75 1.77 1.83 1.79 1.77 1.73 1.67 1.64 1.68 1.61 1.53 1.48 1.47 1.43 1.37 1.34 1.35 1.31 1.20 1.03 0.97 0.97 1.05 1.08 1.05 1.03 1.07 1.11 1.15 1.10 1.10 1.11
0.57 0.64 0.75 0.88 1.00 1.12 1.25 1.32 1.43 1.71 1.82 1.79 1.77 1.87 1.88 1.89 1.85 1.82 1.80 1.80 1.79 1.64 1.59 1.54 1.50 1.44 1.37 1.39 1.36 1.38 1.36 1.17 1.00 0.98 0.99 0.98 0.98 1.01 1.05 1.04 1.03 0.98 0.98
0.58 0.59 0.64 0.72 0.84 1.01 1.14 1.14 1.32 1.41 1.60 1.76 1.83 1.83 1.93 1.97 1.99 1.98 2.01 2.00 1.95 1.92 1.80 1.66 1.62 1.52 1.46 1.43 1.43 1.39 1.35 1.29 1.23 1.10 1.01 1.04 1.01 1.00 1.03 1.06 1.08 0.97 1.02
0.57 0.60 0.56 0.59 0.74 0.91 1.01 1.03 1.13 1.38 1.50 1.49 1.66 1.82 1.83 1.87 1.93 1.91 1.95 2.04 2.06 2.00 1.86 1.74 1.66 1.63 1.58 1.53 1.48 1.48 1.43 1.35 1.24 1.16 1.18 1.18 1.16 1.10 1.04 1.08 1.09 1.07 1.11
0.54 0.60 0.59 0.58 0.61 0.75 0.93 0.94 1.04 1.21 1.33 1.36 1.38 1.44 1.62 1.64 1.78 1.82 1.84 1.88 1.98 1.92 1.83 1.80 1.71 1.65 1.68 1.67 1.64 1.61 1.60 1.58 1.48 1.36 1.25 1.23 1.23 1.24 1.22 1.18 1.18 1.22 1.18
0.50 0.55 0.56 0.58 0.59 0.65 0.77 0.93 1.00 1.06 1.11 1.16 1.31 1.33 1.36 1.49 1.54 1.59 1.79 1.77 1.87 1.87 1.86 1.79 1.75 1.74 1.69 1.67 1.76 1.70 1.69 1.69 1.67 1.65 1.59 1.43 1.29 1.26 1.25 1.27 1.28 1.26 1.19
0.50 0.53 0.52 0.55 0.60 0.70 0.71 0.79 0.89 0.91 0.94 1.03 1.12 1.27 1.30 1.34 1.41 1.44 1.48 1.66 1.82 1.97 1.91 1.90 1.90 1.74 1.66 1.67 1.82 1.81 1.67 1.67 1.71 1.78 1.73 1.51 1.40 1.26 1.18 1.18 1.20 1.19 1.20
0.52 0.51 0.52 0.53 0.60 0.72 0.72 0.75 0.80 0.82 0.83 0.87 0.98 1.09 1.27 1.28 1.30 1.34 1.29 1.42 1.71 1.87 1.99 2.03 1.99 1.92 1.83 1.86 1.82 1.86 1.88 1.85 1.83 1.79 1.67 1.54 1.44 1.31 1.26 1.20 1.14 1.14 1.12
Wind_Speed
20 20 20 22 21 19 19 18 18 17 17 15 13 11 11 10 10 8 7 5 5 5 5 6 6 6 6 5 6 6 6 6 6 6 6 5 5 5 5 5 6 7 7
20 20 20 23 23 22 20 19 18 17 17 16 14 12 11 11 10 9 8 6 6 5 5 7 7 6 6 6 6 5 6 6 7 6 5 5 5 5 5 5 6 6 7
21 21 21 23 24 23 22 20 19 18 17 16 15 14 12 11 10 10 9 7 6 6 6 7 6 6 6 6 6 6 6 7 6 5 5 5 6 6 6 6 6 7 8
22 22 22 23 24 24 24 22 20 19 18 17 16 16 14 13 11 11 9 8 7 7 7 7 6 6 5 6 6 6 6 6 5 5 5 5 4 5 5 6 6 8 9
22 24 24 24 24 24 24 23 22 20 19 18 17 17 15 15 13 12 11 10 8 8 7 7 7 6 6 6 6 5 5 5 5 5 5 4 4 4 5 5 7 9 9
23 23 24 24 25 23 25 24 23 22 20 20 18 18 17 16 15 13 13 11 9 8 8 7 7 6 6 5 5 6 5 5 5 6 5 4 4 4 5 6 8 9 8
23 23 23 25 25 25 25 26 25 24 22 21 20 19 19 18 17 15 14 13 11 10 9 8 7 6 6 5 5 5 5 6 6 6 6 5 5 5 5 7 8 8 7
22 24 24 24 25 25 26 26 27 25 23 22 21 20 20 19 19 18 16 15 13 12 10 8 8 7 6 6 5 5 6 6 6 7 7 7 6 5 6 6 6 6 6
22 23 23 25 25 25 26 27 27 27 25 24 22 21 21 21 20 19 18 17 15 14 12 10 9 8 7 6 6 5 5 6 7 7 8 8 8 7 7 6 6 6 5
19 22 23 25 25 26 26 26 28 28 26 25 24 22 22 22 21 21 20 19 17 16 14 13 11 10 9 8 7 6 6 6 7 8 9 9 9 9 9 8 7 7 6
19 21 23 24 25 26 26 27 28 29 28 27 26 24 23 23 23 23 23 21 19 17 16 15 14 13 11 10 9 7 7 7 7 8 10 10 11 11 11 10 10 9 9
16 18 21 24 24 25 26 27 27 28 29 28 28 26 26 25 25 25 25 24 23 20 18 17 16 15 14 13 12 11 9 8 9 9 9 11 12 12 13 13 13 12 12
11 15 18 21 24 24 25 25 27 28 29 30 30 29 28 27 27 27 27 27 26 24 22 20 18 17 17 15 14 14 13 12 11 11 11 11 12 13 13 14 14 14 14
10 13 16 17 21 23 24 25 26 28 29 29 31 32 31 30 29 29 29 29 29 28 27 25 23 21 19 18 17 16 16 15 13 13 13 13 14 14 14 15 15 15 16
10 12 14 16 19 21 23 24 27 29 29 30 30 31 33 33 32 31 31 31 31 31 30 29 28 26 24 22 21 20 19 18 18 16 15 15 15 16 16 17 17 17 18
12 13 15 16 18 21 23 23 24 27 30 31 31 30 31 33 34 34 33 33 32 32 32 32 32 31 29 28 26 24 23 22 22 21 19 18 18 18 18 19 20 20 20
16 16 16 18 19 21 23 25 25 27 28 30 30 31 32 32 34 34 35 35 34 34 34 33 34 34 33 32 31 29 27 26 25 24 23 22 21 20 20 20 21 22 22
21 20 19 19 20 21 22 23 25 26 28 28 31 32 32 32 33 34 34 35 35 35 35 35 35 35 35 35 34 33 32 31 30 28 27 26 25 24 23 22 22 23 23
25 25 24 23 22 22 22 22 23 24 27 28 29 31 33 33 33 33 33 34 34 34 35 35 36 36 36 35 35 35 35 34 33 32 31 30 29 28 27 25 25 25 25
29 29 28 27 26 24 24 24 23 24 25 27 30 31 34 32 34 34 34 33 34 33 34 34 35 36 35 35 36 36 35 35 35 34 33 33 32 31 30 29 28 27 27
35 34 32 31 30 28 27 25 26 25 23 25 27 28 32 32 32 32 34 33 33 33 33 33 34 34 35 35 35 35 36 35 35 35 34 33 34 34 33 32 31 30 29
39 38 37 36 35 33 30 29 28 27 27 23 23 26 28 30 32 31 31 32 33 32 32 32 33 33 33 34 34 35 35 35 35 35 35 34 34 34 34 33 32 32 31
44 43 42 41 40 37 35 33 31 29 29 28 26 25 27 29 30 31 33 33 33 34 32 31 31 32 32 33 34 34 34 35 34 34 34 35 35 35 35 34 33 32 32
47 47 47 46 45 42 40 38 36 34 32 33 32 30 31 31 31 31 32 34 34 34 33 32 31 31 31 31 31 32 34 35 35 35 34 34 34 34 34 34 34 34 34
48 50 50 50 49 47 45 42 41 39 37 36 34 34 33 34 32 33 33 32 35 35 35 34 33 32 32 32 32 31 30 31 33 33 33 33 34 34 34 34 34 35 35
47 49 51 53 52 51 49 46 44 43 41 39 38 37 35 36 36 36 34 36 37 39 39 39 36 34 34 32 32 32 32 30 29 30 30 30 30 32 33 33 33 34 34
Wind_Direction
191 189 190 188 186 183 181 181 180 180 182 185 185 185 186 184 181 177 172 171 163 149 162 170 159 156 155 145 136 127 134 128 129 130 120 119 117 113 109 118 124 122 117
193 193 193 193 193 190 189 188 187 186 188 192 191 189 185 182 184 183 177 173 173 166 142 154 151 148 149 145 152 145 139 138 134 124 115 105 103 103 107 120 130 133 132
197 197 196 197 198 198 196 194 193 193 194 195 194 192 188 185 183 182 182 177 169 167 156 157 156 155 150 147 149 146 144 143 142 133 119 110 106 94 99 109 124 135 137
202 201 200 199 199 201 200 200 199 199 199 197 196 194 193 191 191 185 184 180 175 172 168 167 166 163 163 161 154 157 151 150 146 146 135 128 116 101 92 106 123 133 137
202 202 201 200 200 201 202 203 202 202 201 200 200 199 198 197 196 194 192 187 179 178 175 175 173 170 167 167 172 167 166 167 168 165 155 140 130 114 108 117 124 134 137
207 205 205 204 204 204 206 204 204 205 204 204 205 203 202 199 197 196 195 192 189 186 182 178 174 173 169 172 178 186 184 181 175 172 169 160 144 124 117 123 132 136 136
206 207 204 206 206 207 207 207 208 208 208 208 208 209 207 205 204 201 202 200 197 191 188 186 182 183 185 185 181 185 191 192 187 180 179 172 159 144 132 134 138 139 139
208 209 207 206 206 207 209 209 210 210 210 211 211 212 210 210 210 208 206 204 202 198 194 193 196 196 194 196 198 198 200 201 200 200 194 186 177 168 153 154 155 156 158
209 208 207 208 209 209 210 210 211 213 213 213 214 214 214 213 212 210 209 209 207 207 209 208 206 204 204 202 201 206 206 209 211 207 204 201 198 191 184 180 181 182 187
211 212 211 210 211 212 212 212 213 213 214 215 216 216 217 217 215 214 213 213 214 213 214 216 214 213 213 212 209 210 212 214 214 214 212 213 211 209 207 208 207 208 213
218 216 217 214 213 215 215 215 215 216 217 218 220 220 221 220 220 218 218 218 217 218 221 221 219 219 219 220 221 222 223 223 222 223 222 223 220 221 220 221 224 230 234
222 218 217 217 217 216 218 218 218 218 219 220 221 223 224 224 223 223 222 222 222 223 224 223 224 225 225 226 228 230 231 231 232 231 229 229 227 229 229 232 236 240 245
228 222 220 220 217 219 220 220 221 221 222 223 223 225 226 225 226 225 225 225 226 227 227 226 227 227 229 231 234 236 236 237 238 237 235 234 234 235 237 240 242 246 250
231 225 225 226 225 226 225 226 224 225 225 226 227 228 228 229 228 229 228 228 228 229 230 231 231 232 234 236 238 239 239 240 242 242 242 242 240 242 243 245 247 251 254
239 236 233 234 232 231 231 234 231 228 228 229 229 230 230 231 231 231 231 230 231 232 233 234 235 237 238 239 240 242 243 242 245 246 247 248 248 247 248 250 253 254 257
250 245 242 243 240 237 236 237 239 235 234 232 232 233 232 232 232 233 233 233 234 234 235 236 237 239 240 241 241 243 244 245 246 248 250 252 252 253 253 253 255 257 259
253 252 250 248 246 245 244 242 245 239 234 234 233 234 234 234 233 234 234 235 235 236 237 238 239 240 241 242 243 244 246 247 248 249 251 253 254 255 257 258 258 260 260
253 254 254 253 251 250 249 249 247 238 234 237 237 237 237 235 234 234 235 236 237 238 239 240 241 242 243 243 244 245 246 248 249 250 251 252 254 256 258 260 261 262 264
253 253 254 253 254 252 251 250 247 242 237 241 242 241 238 236 235 235 236 237 238 239 240 242 242 243 244 244 245 246 247 248 249 250 251 252 254 255 256 259 261 263 264
253 253 254 253 253 253 252 250 248 246 246 244 243 243 238 238 236 235 236 237 238 240 241 243 243 244 245 245 245 246 247 248 249 250 251 252 253 255 255 257 259 262 263
252 253 252 250 251 252 251 249 247 246 247 249 246 244 235 236 238 238 236 238 240 241 242 243 244 245 245 245 246 246 247 248 248 249 251 252 252 254 255 256 257 259 263
252 250 250 249 249 249 249 249 248 245 246 248 246 241 236 236 237 238 239 240 239 241 242 243 245 245 245 245 246 246 247 248 248 249 251 252 252 253 254 255 257 259 261
251 250 248 248 247 247 246 246 247 246 245 246 245 245 240 240 239 240 241 242 241 239 242 244 245 245 245 246 247 247 248 248 249 250 251 252 252 253 254 255 257 258 259
252 250 249 246 245 246 245 245 246 246 248 247 247 249 246 242 243 243 244 242 241 241 241 244 244 245 245 246 247 248 248 249 249 250 251 252 252 253 255 257 257 258 259
253 250 248 246 244 244 243 244 245 246 247 247 249 249 247 243 245 245 244 244 242 243 243 244 244 244 245 246 247 247 248 249 249 250 252 253 253 254 255 257 258 258 258
254 251 248 245 244 242 241 243 244 245 246 247 247 247 248 247 246 249 249 246 248 246 245 244 244 244 246 247 246 248 248 249 249 249 250 252 253 255 256 257 258 258 259